Home > Weather > Stroudsburg > Past weeks

Flag for USA Past Weather in Stroudsburg, Pennsylvania, USA — Yesterday and Last 2 Weeks

Now
74 °F

Overcast.


Feels Like: 75 °F
Forecast: 71 / 90 °F
Wind: 8 mph from Southwest

Location: Pocono Mountains Municipal Airport

Current Time: Jul 25, 2016 at 4:14:34 AM

Latest Report: Jul 25, 2016 at 2:53 AM


Visibility: 10 mi

Pressure: 29.96 "Hg

Humidity: 74%

Dew Point: 65 °F

Location of StroudsburgLocation

Past Weather in Stroudsburg — Graph

°F

Stroudsburg Temperature Yesterday

Maximum temperature yesterday: 85 °F (at 1:53 PM)
Minimum temperature yesterday: 64 °F (at 12:53 AM)
Average temperature yesterday: 75 °F

High & Low Weather Summary for the Past Weeks

 TemperatureHumidityPressure
High88 °F (Jul 23, 1:53 PM)100% (Jul 13, 8:53 PM)30.28 "Hg (Jul 13, 8:53 PM)
Low51 °F (Jul 20, 4:53 AM)33% (Jul 20, 3:53 PM)29.84 "Hg (Jul 14, 5:53 PM)
Average70 °F70%30.05 "Hg
* Reported Jul 10 6:53 AM — Jul 25 2:53 AM, Stroudsburg, Weather by CustomWeather, © 2016

Note: Actual official high and low records may vary slightly from our data, if they occured in-between our weather recording intervals... More about our weather records

Advertising

Stroudsburg Weather History for the Previous 24 Hours

Scroll right to see more
 ConditionsComfort  
Time TempWeatherWind HumidityBarometerVisibility
2:53 AM
Mon, Jul 25
74 °FOvercast.8 mph74%29.96 "Hg10 mi
1:53 AM74 °FMostly cloudy.8 mph71%29.96 "Hg10 mi
12:53 AM72 °FClear.3 mph76%29.98 "Hg10 mi
11:53 PM
Sun, Jul 24
75 °FClear.6 mph66%30.00 "Hg10 mi
10:53 PM73 °FClear.6 mph69%30.01 "Hg10 mi
9:53 PM68 °FClear.No wind78%30.02 "Hg10 mi
8:53 PM70 °FSunny.No wind73%30.00 "Hg10 mi
7:53 PM74 °FSunny.No wind62%29.99 "Hg10 mi
6:53 PM81 °FSunny.6 mph41%30.00 "Hg10 mi
5:53 PM83 °FSunny.10 mph38%29.99 "Hg10 mi
4:53 PM85 °FPassing clouds.5 mph39%29.99 "Hg10 mi
3:53 PM85 °FSunny.8 mph37%29.99 "Hg10 mi
2:53 PM85 °FSunny.3 mph35%30.00 "Hg10 mi
1:53 PM85 °FSunny.8 mph37%30.02 "Hg10 mi
12:53 PM83 °FSunny.8 mph37%30.03 "Hg10 mi
11:53 AM83 °FSunny.9 mph38%30.03 "Hg10 mi
10:53 AM81 °FSunny.8 mph42%30.03 "Hg10 mi
9:53 AM79 °FSunny.3 mphN/A30.03 "Hg10 mi
8:53 AM73 °FSunny.No windN/A30.04 "Hg10 mi
7:53 AM70 °FSunny.5 mphN/A30.04 "Hg10 mi
6:53 AM66 °FSunny.6 mphN/A30.01 "Hg10 mi
5:53 AM64 °FClear.7 mphN/A30.01 "Hg10 mi
4:53 AM64 °FClear.6 mphN/A29.98 "Hg10 mi
Weather by CustomWeather, © 2016

See weather overviewHow to use our weather pages